RYR3KH LIBD-LMML

Flight info

Callsign RYR3KH
Flight time 0h 58m
Altitude 35000
Route TOPNO DCT BUMOK DCT OBAXU DCT NELDA N982 GZO
Aircraft B738/M-SDE2E3FGHIRWXY/LB1

Departure

Time 2026-04-21 16:27
Airport Bari Karol Wojtyła International Airport (LIBD)

Arrival

Time 2026-04-21 17:25
Airport Malta International Airport (LMML)
Time Latitude Longitude Altitude Speed Heading
2026-04-21 16:11 41.13550 16.76396 148 ft 0 kts 160°
2026-04-21 16:19 41.13562 16.76390 148 ft 2 kts 160°
2026-04-21 16:19 41.13577 16.76383 147 ft 2 kts 160°
2026-04-21 16:20 41.13593 16.76376 147 ft 2 kts 160°
2026-04-21 16:20 41.13609 16.76372 147 ft 2 kts 226°
2026-04-21 16:20 41.13616 16.76387 146 ft 1 kts 247°
2026-04-21 16:20 41.13617 16.76390 146 ft 0 kts 247°
2026-04-21 16:21 41.13606 16.76353 148 ft 10 kts 249°
2026-04-21 16:22 41.13577 16.76249 151 ft 14 kts 248°
2026-04-21 16:22 41.13556 16.76129 154 ft 13 kts 283°
2026-04-21 16:22 41.13620 16.76043 154 ft 14 kts 314°
2026-04-21 16:22 41.13628 16.75930 159 ft 13 kts 252°
2026-04-21 16:23 41.13594 16.75809 163 ft 18 kts 249°
2026-04-21 16:23 41.13543 16.75632 166 ft 24 kts 249°
2026-04-21 16:23 41.13486 16.75431 169 ft 23 kts 249°
2026-04-21 16:23 41.13431 16.75236 172 ft 22 kts 249°
2026-04-21 16:24 41.13376 16.75044 178 ft 24 kts 250°
2026-04-21 16:24 41.13316 16.74831 190 ft 24 kts 249°
2026-04-21 16:24 41.13257 16.74632 192 ft 23 kts 248°
2026-04-21 16:24 41.13205 16.74437 203 ft 22 kts 250°
2026-04-21 16:25 41.13166 16.74264 200 ft 21 kts 273°
2026-04-21 16:25 41.13251 16.74116 207 ft 21 kts 343°
2026-04-21 16:25 41.13311 16.74150 197 ft 6 kts 62°
2026-04-21 16:25 41.13321 16.74188 198 ft 0 kts 70°
2026-04-21 16:26 41.13322 16.74192 197 ft 4 kts 70°
2026-04-21 16:26 41.13439 16.74608 186 ft 90 kts 69°
2026-04-21 16:26 41.13734 16.75679 175 ft 153 kts 73°
2026-04-21 16:27 41.14073 16.77101 779 ft 167 kts 74°
2026-04-21 16:27 41.14469 16.78606 1507 ft 175 kts 69°
2026-04-21 16:27 41.14921 16.80139 2210 ft 188 kts 68°
2026-04-21 16:27 41.15440 16.81857 2564 ft 216 kts 67°
2026-04-21 16:28 41.16036 16.83814 2845 ft 239 kts 66°
2026-04-21 16:28 41.16655 16.85942 3317 ft 254 kts 68°
2026-04-21 16:28 41.17293 16.88172 3985 ft 259 kts 68°
2026-04-21 16:28 41.17948 16.90446 4650 ft 268 kts 68°
2026-04-21 16:29 41.18607 16.92784 5337 ft 273 kts 71°
2026-04-21 16:29 41.18862 16.95313 5981 ft 280 kts 91°
2026-04-21 16:29 41.18756 16.97888 6827 ft 276 kts 92°
2026-04-21 16:29 41.18715 17.00375 7860 ft 263 kts 89°
2026-04-21 16:30 41.18470 17.02772 8308 ft 279 kts 114°
2026-04-21 16:30 41.17261 17.04869 8471 ft 296 kts 148°
2026-04-21 16:30 41.15365 17.05831 9053 ft 293 kts 179°
2026-04-21 16:30 41.13398 17.05406 9766 ft 286 kts 209°
2026-04-21 16:31 41.11791 17.03922 10363 ft 285 kts 229°
2026-04-21 16:31 41.10586 17.01754 10550 ft 301 kts 245°
2026-04-21 16:31 41.09871 16.99078 10781 ft 316 kts 257°
2026-04-21 16:31 41.09379 16.96164 11110 ft 330 kts 260°
2026-04-21 16:32 41.08939 16.93137 11581 ft 338 kts 261°
2026-04-21 16:32 41.08173 16.90217 12165 ft 347 kts 240°
2026-04-21 16:32 41.06519 16.87849 12871 ft 356 kts 220°
2026-04-21 16:32 41.04368 16.86147 13507 ft 364 kts 212°
2026-04-21 16:33 41.02099 16.84604 14079 ft 369 kts 211°
2026-04-21 16:33 40.99789 16.83085 14663 ft 373 kts 210°
2026-04-21 16:33 40.97527 16.81607 15261 ft 376 kts 211°
2026-04-21 16:33 40.95289 16.80136 15856 ft 378 kts 211°
2026-04-21 16:34 40.92922 16.78572 16455 ft 382 kts 211°
2026-04-21 16:34 40.90571 16.77007 17037 ft 385 kts 211°
2026-04-21 16:34 40.88170 16.75403 17608 ft 389 kts 212°
2026-04-21 16:34 40.85744 16.73777 18182 ft 393 kts 212°
2026-04-21 16:35 40.83299 16.72137 18690 ft 396 kts 212°
2026-04-21 16:35 40.80837 16.70485 19206 ft 399 kts 212°
2026-04-21 16:35 40.78355 16.68820 19698 ft 402 kts 212°
2026-04-21 16:35 40.75852 16.67142 20184 ft 405 kts 212°
2026-04-21 16:36 40.73331 16.65453 20665 ft 408 kts 212°
2026-04-21 16:36 40.70789 16.63752 21127 ft 411 kts 212°
2026-04-21 16:36 40.68265 16.62065 21590 ft 414 kts 212°
2026-04-21 16:36 40.65685 16.60340 22085 ft 417 kts 212°
2026-04-21 16:37 40.63091 16.58609 22531 ft 420 kts 212°
2026-04-21 16:37 40.60471 16.56862 22985 ft 423 kts 212°
2026-04-21 16:37 40.57833 16.55103 23426 ft 426 kts 212°
2026-04-21 16:37 40.55178 16.53336 23815 ft 430 kts 212°
2026-04-21 16:38 40.52503 16.51557 24185 ft 432 kts 212°
2026-04-21 16:38 40.49815 16.49772 24561 ft 434 kts 212°
2026-04-21 16:38 40.47149 16.48002 24890 ft 437 kts 212°
2026-04-21 16:38 40.44430 16.46199 25235 ft 439 kts 212°
2026-04-21 16:39 40.41697 16.44387 25575 ft 441 kts 212°
2026-04-21 16:39 40.38950 16.42569 25902 ft 443 kts 212°
2026-04-21 16:39 40.36188 16.40742 26233 ft 445 kts 212°
2026-04-21 16:39 40.33414 16.38909 26544 ft 447 kts 212°
2026-04-21 16:40 40.30627 16.37069 26806 ft 450 kts 213°
2026-04-21 16:40 40.27861 16.35244 27095 ft 452 kts 213°
2026-04-21 16:40 40.25048 16.33390 27414 ft 454 kts 213°
2026-04-21 16:40 40.22218 16.31528 27720 ft 456 kts 213°
2026-04-21 16:41 40.19381 16.29662 27989 ft 458 kts 213°
2026-04-21 16:41 40.16528 16.27786 28244 ft 460 kts 213°
2026-04-21 16:41 40.13660 16.25903 28535 ft 462 kts 212°
2026-04-21 16:41 40.10785 16.24017 28835 ft 463 kts 212°
2026-04-21 16:42 40.07900 16.22128 29134 ft 465 kts 213°
2026-04-21 16:42 40.05044 16.20259 29429 ft 466 kts 213°
2026-04-21 16:42 40.02153 16.18369 29869 ft 464 kts 213°
2026-04-21 16:42 39.99271 16.16489 30283 ft 462 kts 213°
2026-04-21 16:43 39.96398 16.14616 30635 ft 461 kts 213°
2026-04-21 16:43 39.93536 16.12750 30950 ft 460 kts 213°
2026-04-21 16:43 39.90673 16.10884 31275 ft 460 kts 213°
2026-04-21 16:43 39.87815 16.09023 31640 ft 458 kts 213°
2026-04-21 16:44 39.85006 16.07197 31974 ft 457 kts 213°
2026-04-21 16:44 39.82165 16.05351 32290 ft 456 kts 213°
2026-04-21 16:44 39.79331 16.03510 32612 ft 456 kts 213°
2026-04-21 16:44 39.76496 16.01671 32915 ft 455 kts 213°
2026-04-21 16:45 39.73668 15.99839 33272 ft 454 kts 213°
2026-04-21 16:45 39.70845 15.98012 33646 ft 452 kts 213°
2026-04-21 16:45 39.68031 15.96193 33989 ft 450 kts 213°
2026-04-21 16:45 39.65231 15.94384 34238 ft 450 kts 213°
2026-04-21 16:46 39.62459 15.92593 34455 ft 450 kts 213°
2026-04-21 16:46 39.59675 15.90799 34846 ft 446 kts 213°
2026-04-21 16:46 39.56891 15.89004 34984 ft 448 kts 213°
2026-04-21 16:47 39.51268 15.85378 34992 ft 453 kts 213°
2026-04-21 16:47 39.45647 15.81770 34991 ft 449 kts 213°
2026-04-21 16:48 39.40067 15.78195 34987 ft 446 kts 213°
2026-04-21 16:48 39.34553 15.74667 34989 ft 444 kts 213°
2026-04-21 16:49 39.29020 15.71130 34985 ft 443 kts 213°
2026-04-21 16:49 39.23491 15.67602 34988 ft 444 kts 212°
2026-04-21 16:50 39.17950 15.64073 34985 ft 445 kts 212°
2026-04-21 16:50 39.12425 15.60560 34978 ft 447 kts 212°
2026-04-21 16:51 39.06839 15.57015 34970 ft 448 kts 212°
2026-04-21 16:51 39.01232 15.53465 34961 ft 450 kts 212°
2026-04-21 16:52 38.95611 15.49912 34954 ft 451 kts 212°
2026-04-21 16:52 38.90019 15.46383 34946 ft 451 kts 212°
2026-04-21 16:53 38.84386 15.42835 34933 ft 451 kts 212°
2026-04-21 16:53 38.78750 15.39292 34932 ft 451 kts 212°
2026-04-21 16:54 38.73124 15.35760 34930 ft 450 kts 212°
2026-04-21 16:54 38.67551 15.32269 34930 ft 449 kts 212°
2026-04-21 16:55 38.61945 15.28762 34931 ft 448 kts 212°
2026-04-21 16:55 38.56353 15.25270 34927 ft 447 kts 212°
2026-04-21 16:56 38.50807 15.21813 34933 ft 446 kts 212°
2026-04-21 16:56 38.45228 15.18341 34931 ft 446 kts 212°
2026-04-21 16:57 38.39649 15.14874 34932 ft 447 kts 212°
2026-04-21 16:57 38.34045 15.11397 34928 ft 449 kts 212°
2026-04-21 16:58 38.28461 15.07940 34918 ft 450 kts 212°
2026-04-21 16:58 38.22829 15.04460 34919 ft 450 kts 212°
2026-04-21 16:59 38.17190 15.00982 34925 ft 450 kts 212°
2026-04-21 16:59 38.11561 14.97517 34927 ft 449 kts 212°
2026-04-21 17:00 38.05964 14.94077 34917 ft 445 kts 212°
2026-04-21 17:00 38.01327 14.91230 34930 ft 447 kts 212°
2026-04-21 17:01 37.94793 14.87221 34696 ft 454 kts 211°
2026-04-21 17:01 37.91930 14.85466 34082 ft 457 kts 211°
2026-04-21 17:01 37.89073 14.83720 33384 ft 455 kts 211°
2026-04-21 17:01 37.86225 14.81983 32744 ft 453 kts 211°
2026-04-21 17:02 37.83400 14.80263 32299 ft 447 kts 211°
2026-04-21 17:02 37.80610 14.78565 31798 ft 443 kts 211°
2026-04-21 17:02 37.77887 14.76908 31365 ft 438 kts 211°
2026-04-21 17:02 37.75159 14.75248 30895 ft 434 kts 211°
2026-04-21 17:03 37.72450 14.73600 30442 ft 430 kts 211°
2026-04-21 17:03 37.69766 14.71968 29999 ft 427 kts 211°
2026-04-21 17:03 37.67102 14.70349 29461 ft 423 kts 211°
2026-04-21 17:03 37.64463 14.68747 29004 ft 419 kts 211°
2026-04-21 17:04 37.61853 14.67164 28550 ft 414 kts 210°
2026-04-21 17:04 37.59266 14.65597 28084 ft 411 kts 210°
2026-04-21 17:04 37.56738 14.64066 27647 ft 406 kts 210°
2026-04-21 17:04 37.54186 14.62520 27198 ft 413 kts 210°
2026-04-21 17:05 37.51532 14.60905 26750 ft 434 kts 210°
2026-04-21 17:05 37.48751 14.59215 26264 ft 455 kts 210°
2026-04-21 17:05 37.45838 14.57452 25744 ft 473 kts 209°
2026-04-21 17:05 37.42863 14.55660 25206 ft 474 kts 209°
2026-04-21 17:06 37.39901 14.53885 24677 ft 470 kts 209°
2026-04-21 17:06 37.36956 14.52119 24159 ft 467 kts 209°
2026-04-21 17:06 37.34030 14.50363 23638 ft 465 kts 209°
2026-04-21 17:06 37.31117 14.48612 23053 ft 463 kts 209°
2026-04-21 17:07 37.28263 14.46898 22512 ft 459 kts 209°
2026-04-21 17:07 37.25393 14.45176 21982 ft 455 kts 209°
2026-04-21 17:07 37.22521 14.43576 21478 ft 451 kts 204°
2026-04-21 17:07 37.19486 14.42475 21035 ft 456 kts 196°
2026-04-21 17:08 37.16350 14.41776 20518 ft 459 kts 192°
2026-04-21 17:08 37.13197 14.41238 19998 ft 455 kts 191°
2026-04-21 17:08 37.10072 14.40759 19491 ft 451 kts 190°
2026-04-21 17:08 37.06968 14.40293 19006 ft 448 kts 191°
2026-04-21 17:09 37.00855 14.39340 17984 ft 444 kts 191°
2026-04-21 17:09 36.97802 14.38846 17446 ft 441 kts 191°
2026-04-21 17:09 36.94773 14.38350 16944 ft 437 kts 191°
2026-04-21 17:10 36.91771 14.37855 16443 ft 433 kts 191°
2026-04-21 17:10 36.88797 14.37364 15958 ft 429 kts 191°
2026-04-21 17:10 36.85848 14.36878 15488 ft 426 kts 191°
2026-04-21 17:10 36.82925 14.36396 15019 ft 422 kts 191°
2026-04-21 17:11 36.80057 14.35924 14552 ft 418 kts 191°
2026-04-21 17:11 36.77190 14.35453 14095 ft 414 kts 191°
2026-04-21 17:11 36.74355 14.34988 13646 ft 405 kts 190°
2026-04-21 17:11 36.71626 14.34543 13459 ft 384 kts 191°
2026-04-21 17:12 36.69061 14.34127 13300 ft 361 kts 191°
2026-04-21 17:12 36.66643 14.33733 13144 ft 340 kts 191°
2026-04-21 17:12 36.64333 14.33354 12671 ft 332 kts 191°
2026-04-21 17:12 36.62050 14.32976 12004 ft 331 kts 191°
2026-04-21 17:13 36.59804 14.32605 11377 ft 329 kts 191°
2026-04-21 17:13 36.57538 14.32232 10866 ft 327 kts 190°
2026-04-21 17:13 36.55284 14.31863 10550 ft 324 kts 190°
2026-04-21 17:13 36.53078 14.31504 10376 ft 316 kts 190°
2026-04-21 17:14 36.50924 14.31154 10236 ft 308 kts 190°
2026-04-21 17:14 36.48820 14.30869 10137 ft 300 kts 187°
2026-04-21 17:14 36.46766 14.30730 10042 ft 292 kts 185°
2026-04-21 17:14 36.44763 14.30634 9927 ft 286 kts 185°
2026-04-21 17:15 36.42786 14.30541 9636 ft 290 kts 185°
2026-04-21 17:15 36.40758 14.30441 9341 ft 294 kts 185°
2026-04-21 17:15 36.38709 14.30335 9034 ft 295 kts 185°
2026-04-21 17:15 36.36662 14.30226 8728 ft 294 kts 185°
2026-04-21 17:16 36.34627 14.30115 8425 ft 292 kts 185°
2026-04-21 17:16 36.32606 14.30003 8126 ft 290 kts 185°
2026-04-21 17:16 36.30599 14.29891 7830 ft 288 kts 185°
2026-04-21 17:16 36.28630 14.29780 7541 ft 286 kts 185°
2026-04-21 17:17 36.26648 14.29668 7254 ft 285 kts 185°
2026-04-21 17:17 36.24671 14.29556 6962 ft 284 kts 185°
2026-04-21 17:17 36.22699 14.29444 6670 ft 283 kts 184°
2026-04-21 17:17 36.20736 14.29332 6386 ft 282 kts 185°
2026-04-21 17:18 36.18779 14.29221 6103 ft 280 kts 185°
2026-04-21 17:18 36.16838 14.29112 5824 ft 278 kts 185°
2026-04-21 17:18 36.14913 14.29002 5541 ft 277 kts 185°
2026-04-21 17:18 36.13020 14.28895 5267 ft 276 kts 185°
2026-04-21 17:19 36.11114 14.28787 5073 ft 271 kts 185°
2026-04-21 17:19 36.09256 14.28682 4947 ft 267 kts 185°
2026-04-21 17:19 36.07395 14.28576 4832 ft 268 kts 185°
2026-04-21 17:19 36.05533 14.28471 4732 ft 268 kts 185°
2026-04-21 17:20 36.03668 14.28365 4545 ft 269 kts 185°
2026-04-21 17:20 36.01834 14.28609 4217 ft 266 kts 158°
2026-04-21 17:20 36.00317 14.29819 4007 ft 256 kts 142°
2026-04-21 17:20 35.99032 14.31265 3722 ft 251 kts 136°
2026-04-21 17:21 35.97821 14.32784 3457 ft 245 kts 136°
2026-04-21 17:21 35.96639 14.34264 3241 ft 238 kts 136°
2026-04-21 17:21 35.95505 14.35674 3066 ft 224 kts 135°
2026-04-21 17:21 35.94458 14.37018 2831 ft 212 kts 135°
2026-04-21 17:22 35.93450 14.38300 2549 ft 204 kts 136°
2026-04-21 17:22 35.92479 14.39501 2285 ft 193 kts 136°
2026-04-21 17:22 35.91587 14.40595 2215 ft 167 kts 137°
2026-04-21 17:22 35.90821 14.41530 2031 ft 148 kts 138°
2026-04-21 17:23 35.90102 14.42416 1699 ft 146 kts 137°
2026-04-21 17:23 35.89379 14.43315 1369 ft 147 kts 137°
2026-04-21 17:23 35.88671 14.44189 1157 ft 145 kts 139°
2026-04-21 17:23 35.87947 14.45065 937 ft 146 kts 138°
2026-04-21 17:24 35.87241 14.45937 714 ft 140 kts 137°
2026-04-21 17:24 35.86551 14.46772 546 ft 136 kts 140°
2026-04-21 17:24 35.85864 14.47620 363 ft 142 kts 137°
2026-04-21 17:24 35.85193 14.48446 262 ft 127 kts 137°
2026-04-21 17:25 35.84655 14.49104 252 ft 88 kts 135°
2026-04-21 17:25 35.84340 14.49495 251 ft 50 kts 135°
2026-04-21 17:25 35.84220 14.49683 248 ft 6 kts 79°
2026-04-21 17:25 35.84236 14.49703 248 ft 1 kts
2026-04-21 17:26 35.84294 14.49685 249 ft 15 kts 343°
2026-04-21 17:26 35.84394 14.49648 250 ft 14 kts 343°
2026-04-21 17:26 35.84479 14.49599 250 ft 13 kts 317°
2026-04-21 17:26 35.84554 14.49539 251 ft 13 kts 333°
2026-04-21 17:27 35.84611 14.49550 251 ft 7 kts 27°
2026-04-21 17:27 35.84693 14.49567 251 ft 18 kts
2026-04-21 17:27 35.84766 14.49567 251 ft 5 kts 359°
2026-04-21 17:27 35.84780 14.49566 251 ft 0 kts 359°